[[{"header":{"parameterUnit":"m.s-1","parameterCategory":1,"la1":30.2991,"la2":30.254,"lo1":-89.0895,"lo2":-89.0444,"dy":0.0017,"dx":0.0017,"nx":28,"ny":28,"refTime":"2025-03-14T09:00:00:Z","depth":0,"parameterNumber":2,"parameterNumberName":"U-component_of_WINDS"},"data":[0,0,0,0,0,0,0,0,0,0,0,0,0,0,0,0,0,0,0,0,0,0,0,0,0,0,0,0,0,0,0,0,0,0,0,0,0,0,0,0,0,0,0,0,0,0,0,0,0,0,0,0,0,0,0,0,0,0,0.0813,0.0813,0,0.0793,0.0793,0.0792,0.0749,0.0748,0.0747,0.0746,0.0726,0.0727,0.0727,0,0,0,0,0,0,0,0,0,0,0,0,0,0.0814,0.0815,0.0813,0.0813,0.0812,0.0793,0.0793,0.0792,0.0749,0.0748,0.0747,0.0746,0.0726,0.0727,0.0727,0,0,0,0,0,0,0,0,0,0,0,0,0,0.0806,0.0815,0.0813,0.0788,0.0786,0.0793,0.0793,0.0792,0.0749,0.0748,0.0747,0.0745,0.0726,0.0727,0.0727,0.0756,0,0,0.0728,0.0729,0,0,0,0,0,0,0,0,0.0807,0.0806,0.0792,0.079,0.0787,0.0772,0.0786,0.078,0.075,0.0763,0.0746,0.0745,0.0743,0.0742,0.0741,0.0755,0.0755,0.0728,0.0729,0.0729,0.0729,0,0,0,0,0,0,0,0.0807,0.0807,0.0805,0.0792,0.0789,0.0779,0.0776,0.0785,0.0761,0.0762,0.0759,0.0757,0.0741,0.0741,0.074,0.0754,0.0728,0.0729,0.0729,0.0729,0.0793,0.0794,0,0,0,0,0,0,0.0811,0.0807,0.0805,0.0804,0.0794,0.078,0.0777,0.0778,0.076,0.0756,0.0758,0.0755,0.074,0.074,0.0739,0.0773,0.0729,0.0729,0.073,0.0792,0.0793,0.0795,0,0,0,0,0,0,0.0811,0.0811,0.0806,0.0805,0.0803,0.0781,0.0783,0.0779,0.0778,0.0757,0.0753,0.0762,0.0739,0.0739,0.0753,0.0772,0.073,0.073,0.079,0.0792,0.0794,0.0841,0,0,0,0,0,0,0.0812,0.0812,0.0822,0.0806,0.0804,0.082,0.0784,0.0779,0.0779,0.0775,0.076,0.0756,0.0738,0.0752,0.0753,0.0772,0.073,0.0788,0.0791,0.0793,0.0838,0.0844,0.085,0,0,0,0,0,0.0812,0.0836,0.0823,0.0823,0.0817,0.0821,0.082,0.0799,0.078,0.0791,0.0778,0.0757,0.0769,0.0754,0.0755,0.0774,0.0787,0.079,0.0793,0.0835,0.0843,0.085,0,0,0,0,0,0,0.0856,0.0834,0.0819,0.0838,0.0832,0.0814,0.0827,0.0808,0.0807,0.0803,0.0777,0.0774,0.0792,0.0784,0.0767,0.0802,0.0775,0.0778,0.0806,0.0814,0.082,0.0822,0.0731,0,0,0,0,0,0.0868,0.0873,0.0854,0.0873,0.087,0.0849,0.085,0.0835,0.0827,0.0824,0.0812,0.0806,0.0808,0.081,0.0811,0.0836,0.0833,0.0849,0.0856,0.0861,0.0865,0.0878,0.0885,0.0805,0.0805,0.0805,0,0,0.0893,0.0881,0.0886,0.0881,0.0875,0.0881,0.0847,0.0855,0.086,0.0825,0.0838,0.0829,0.082,0.084,0.0848,0.0834,0.0886,0.0865,0.087,0.087,0.0882,0.089,0.0896,0.0807,0.0807,0.0807,0,0,0.0942,0.0933,0.0949,0.0943,0.0933,0.0919,0.0923,0.0907,0.09,0.0912,0.0887,0.0892,0.0897,0.0892,0.089,0.0938,0.0918,0.0939,0.0972,0.0986,0.0992,0.0997,0.1015,0.1022,0.0942,0.0943,0.0943,0,0.0974,0.0983,0.0959,0.0969,0.0968,0.0937,0.0953,0.0948,0.094,0.094,0.0924,0.093,0.0922,0.094,0.0952,0.0951,0.0956,0.0941,0.0993,0.0998,0.1003,0.102,0.1027,0.0945,0.0945,0.0945,0.0944,0,0.1023,0.103,0.1044,0.1036,0.1037,0.105,0.1029,0.1032,0.1016,0.1004,0.1017,0.1006,0.1005,0.1008,0.0993,0.1025,0.1017,0.0997,0.097,0.1014,0.1029,0.1035,0.0949,0.0948,0.0947,0.0947,0,0,0.1099,0.1079,0.1085,0.1081,0.1068,0.1073,0.1085,0.1084,0.1088,0.1083,0.1093,0.1098,0.108,0.1078,0.1062,0.1073,0.1113,0.1052,0.1052,0.1065,0.1149,0.1164,0.1172,0.11,0.1101,0.1102,0.115,0,0.1146,0.1165,0.1144,0.1168,0.1174,0.1145,0.1155,0.1149,0.1138,0.1142,0.113,0.1134,0.111,0.1108,0.1119,0.1106,0.113,0.1102,0.111,0.111,0.1114,0.118,0.1196,0.1242,0.1156,0.1157,0.1158,0,0.1202,0.12,0.1225,0.1211,0.1213,0.1223,0.1221,0.1225,0.1217,0.1208,0.1206,0.1187,0.1198,0.1171,0.1187,0.1169,0.117,0.1165,0.1166,0.1167,0.1137,0.1183,0.1256,0.1263,0.1167,0.1166,0.1165,0,0.1256,0.126,0.1275,0.1273,0.1257,0.1265,0.1259,0.125,0.1251,0.1249,0.125,0.1249,0.1249,0.125,0.1231,0.1213,0.1249,0.122,0.1243,0.1244,0.1252,0.1252,0.1327,0.1252,0.1252,0.1252,0.1252,0,0.131,0.1327,0.1299,0.1309,0.1326,0.1303,0.1321,0.1312,0.1304,0.1312,0.1286,0.1294,0.1269,0.1274,0.1259,0.1275,0.1275,0.1269,0.1265,0.1271,0.1272,0.1272,0.1269,0.1254,0.1254,0.1253,0.1253,0,0.1374,0.1356,0.1371,0.1355,0.1352,0.1365,0.1352,0.136,0.1348,0.1358,0.1359,0.1339,0.1344,0.1326,0.1327,0.1317,0.1341,0.1331,0.1344,0.1341,0.1365,0.1363,0.1444,0.1453,0.1372,0.1372,0.1373,0,0.141,0.1422,0.1408,0.1411,0.1406,0.1412,0.1413,0.139,0.1393,0.1386,0.1395,0.1398,0.1399,0.1408,0.1394,0.1396,0.1386,0.1414,0.1386,0.1393,0.1388,0.1388,0.1389,0.142,0.1421,0.1422,0.1423,0,0.1476,0.1467,0.1469,0.1469,0.1471,0.147,0.1467,0.1471,0.1447,0.1451,0.1456,0.1457,0.1459,0.1462,0.1461,0.1455,0.1435,0.1432,0.1437,0.1445,0.1452,0.1449,0.1361,0.143,0.1429,0.1429,0.1429,0.1428,0.1527,0.1537,0.1529,0.1532,0.1528,0.1526,0.1533,0.1522,0.1526,0.1526,0.1512,0.152,0.1513,0.1509,0.1505,0.1512,0.1498,0.1506,0.1508,0.1511,0.1515,0.145,0.1511,0.1511,0.1511,0.151,0.151,0,0.1592,0.1586,0.159,0.1587,0.159,0.1572,0.1568,0.1572,0.1579,0.1574,0.1576,0.1582,0.1585,0.1572,0.1574,0.1581,0.1573,0.1583,0.1582,0.1581,0.1526,0.1522,0.159,0.159,0.159,0.159,0.159,0.159,0.1627,0.1642,0.1633,0.1646,0.1639,0.1647,0.1647,0.1645,0.1641,0.1649,0.1652,0.1643,0.1635,0.1636,0.1639,0.1635,0.1637,0.1651,0.1644,0.1593,0.1585,0.1578,0.1573,0.1651,0.1651,0.1698,0.1699,0.1699]},{"header":{"parameterUnit":"m.s-1","parameterCategory":1,"la1":30.2991,"la2":30.254,"lo1":-89.0895,"lo2":-89.0444,"dy":0.0017,"dx":0.0017,"nx":28,"ny":28,"refTime":"2025-03-14T09:00:00:Z","depth":0,"parameterNumber":3,"parameterNumberName":"V-component_of_WINDS"},"data":[0,0,0,0,0,0,0,0,0,0,0,0,0,0,0,0,0,0,0,0,0,0,0,0,0,0,0,0,0,0,0,0,0,0,0,0,0,0,0,0,0,0,0,0,0,0,0,0,0,0,0,0,0,0,0,0,0,0,4.1282,4.1283,0,4.1338,4.1338,4.1339,4.1322,4.1321,4.132,4.1319,4.137,4.1372,4.1374,0,0,0,0,0,0,0,0,0,0,0,0,0,4.1154,4.1157,4.1282,4.1283,4.1283,4.1337,4.1338,4.1339,4.1322,4.1321,4.1319,4.1318,4.1369,4.1372,4.1375,0,0,0,0,0,0,0,0,0,0,0,0,0,4.121,4.1158,4.1282,4.1282,4.1282,4.1337,4.1338,4.1339,4.1322,4.1321,4.1319,4.1317,4.1368,4.1371,4.1375,4.1432,0,0,4.1386,4.1388,0,0,0,0,0,0,0,0,4.1207,4.1214,4.1281,4.1282,4.1282,4.1321,4.1312,4.137,4.1323,4.1307,4.1318,4.1316,4.1354,4.1359,4.1373,4.1434,4.1437,4.1386,4.1389,4.139,4.1391,0,0,0,0,0,0,0,4.1203,4.1212,4.1304,4.1282,4.1283,4.1276,4.1282,4.1323,4.1339,4.1308,4.1307,4.1314,4.1354,4.137,4.1374,4.1437,4.1386,4.139,4.1392,4.1393,4.1547,4.1549,0,0,0,0,0,0,4.1199,4.1209,4.1302,4.1305,4.124,4.128,4.1287,4.131,4.1339,4.1342,4.1316,4.1313,4.1364,4.137,4.1376,4.1445,4.139,4.1394,4.1396,4.1546,4.1548,4.155,0,0,0,0,0,0,4.1197,4.1208,4.13,4.1257,4.1268,4.1284,4.1311,4.1312,4.1328,4.1345,4.1347,4.1329,4.1363,4.1371,4.1419,4.1447,4.1395,4.1399,4.1543,4.1546,4.1549,4.1583,0,0,0,0,0,0,4.1193,4.1207,4.1231,4.1258,4.1271,4.1343,4.1312,4.1315,4.1335,4.1332,4.1358,4.136,4.1362,4.1413,4.1422,4.1451,4.1401,4.1541,4.1545,4.1548,4.158,4.1587,4.1593,0,0,0,0,0,4.1189,4.1237,4.1232,4.1243,4.1301,4.1345,4.1352,4.1356,4.1337,4.136,4.137,4.1359,4.1442,4.1418,4.1428,4.1458,4.1539,4.1544,4.1548,4.1577,4.1586,4.1593,0,0,0,0,0,0,4.121,4.124,4.1235,4.1294,4.1317,4.1342,4.1371,4.1365,4.1393,4.1389,4.139,4.1396,4.1445,4.1456,4.1429,4.1514,4.1487,4.1494,4.1506,4.1515,4.1521,4.1518,4.1404,0,0,0,0,0,4.1222,4.1258,4.1281,4.1331,4.1343,4.1355,4.1375,4.1375,4.1399,4.1408,4.1422,4.1444,4.1475,4.1495,4.1524,4.1581,4.1586,4.1606,4.1613,4.1618,4.1624,4.1655,4.1664,4.1564,4.1564,4.1564,0,0,4.1247,4.1268,4.129,4.1336,4.1354,4.1389,4.1364,4.1402,4.1428,4.1413,4.146,4.1471,4.1495,4.1548,4.1571,4.1558,4.1653,4.1624,4.1628,4.1631,4.166,4.167,4.1678,4.1567,4.1566,4.1566,0,0,4.131,4.133,4.1373,4.1392,4.1421,4.1429,4.1439,4.1465,4.1472,4.152,4.151,4.1538,4.1592,4.1609,4.1625,4.1694,4.1685,4.1703,4.1739,4.1769,4.1777,4.1784,4.1809,4.1818,4.1709,4.1709,4.1709,0,4.1337,4.1392,4.1396,4.1436,4.1456,4.1446,4.1489,4.1506,4.1542,4.1555,4.154,4.1607,4.1622,4.1679,4.1696,4.1708,4.172,4.1701,4.1775,4.1783,4.1789,4.1813,4.1823,4.1711,4.1711,4.171,4.171,0,4.1423,4.1461,4.1493,4.153,4.1553,4.1594,4.1603,4.1625,4.1623,4.1632,4.1679,4.1697,4.173,4.1743,4.174,4.1799,4.179,4.1775,4.1748,4.1801,4.1824,4.1833,4.1714,4.1713,4.1713,4.1712,0,0,4.1504,4.1543,4.1554,4.1571,4.1601,4.163,4.1669,4.1703,4.1723,4.1747,4.178,4.1824,4.1811,4.1829,4.1828,4.1854,4.1908,4.1836,4.1836,4.185,4.1974,4.1986,4.1997,4.1901,4.1903,4.1904,4.1972,0,4.1571,4.1644,4.1648,4.1713,4.1748,4.1738,4.1772,4.1793,4.1802,4.1831,4.1839,4.1871,4.1851,4.1861,4.1887,4.1896,4.1933,4.1891,4.1931,4.1933,4.1928,4.2009,4.2022,4.2086,4.1981,4.1983,4.1984,0,4.1659,4.1689,4.1758,4.1784,4.1798,4.183,4.1861,4.1889,4.1912,4.1916,4.1936,4.1931,4.197,4.194,4.1993,4.1965,4.1981,4.1987,4.199,4.1995,4.1963,4.2017,4.2106,4.2116,4.1997,4.1996,4.1995,0,4.1712,4.1769,4.1818,4.1832,4.1863,4.1885,4.1898,4.192,4.194,4.1966,4.1979,4.2008,4.2024,4.2046,4.2049,4.2027,4.2102,4.2073,4.2106,4.2106,4.2124,4.2123,4.2218,4.2132,4.2131,4.2131,4.2131,0,4.1788,4.1831,4.1843,4.1873,4.192,4.1923,4.1969,4.198,4.1999,4.203,4.2021,4.205,4.2051,4.208,4.2082,4.2125,4.2132,4.2136,4.2136,4.2138,4.2138,4.215,4.2146,4.2134,4.2133,4.2133,4.2132,0,4.1856,4.1866,4.1919,4.1944,4.1951,4.1985,4.2004,4.2032,4.2039,4.2079,4.2088,4.2098,4.2132,4.2136,4.2174,4.2175,4.2229,4.2223,4.2222,4.2222,4.2255,4.2253,4.2362,4.2377,4.228,4.2281,4.2282,0,4.1905,4.1938,4.1967,4.1988,4.2003,4.2037,4.2058,4.206,4.2082,4.211,4.2135,4.2167,4.2194,4.2248,4.2258,4.2287,4.2283,4.2319,4.2287,4.2288,4.2285,4.2284,4.2287,4.2326,4.2327,4.2328,4.2328,0,4.199,4.1993,4.2025,4.2058,4.2084,4.2109,4.2133,4.215,4.2156,4.218,4.2216,4.2236,4.2276,4.2309,4.2337,4.2348,4.2339,4.2338,4.2348,4.2351,4.2349,4.2352,4.2241,4.2336,4.2335,4.2335,4.2334,4.2334,4.2051,4.2081,4.2106,4.2141,4.216,4.2182,4.221,4.2221,4.2251,4.2286,4.2284,4.2323,4.2343,4.2381,4.2394,4.2423,4.2411,4.2424,4.2428,4.2432,4.2436,4.2343,4.2428,4.2427,4.2427,4.2427,4.2427,0,4.2137,4.2153,4.2185,4.2221,4.2248,4.2238,4.2264,4.2287,4.2322,4.2342,4.2369,4.2409,4.244,4.2452,4.2482,4.2503,4.25,4.2511,4.251,4.2513,4.2444,4.2434,4.2513,4.2513,4.2513,4.2513,4.2513,4.2513,4.2186,4.2235,4.2241,4.2299,4.2313,4.2353,4.2369,4.2389,4.2405,4.2451,4.2478,4.2486,4.2503,4.2534,4.2562,4.2564,4.2576,4.259,4.2591,4.2527,4.2518,4.251,4.25,4.2592,4.2592,4.2657,4.2658,4.2658]}]]